• In Hungary
  • List of Countries
  • For 7 days
  • Water Temperature
  • Satellite Maps
  • Weather Map
  • News
  • Weather Widgets
  • user-avatar
    Login

    Hourly Weather Konstantyna

    Today, 20 November, Monday

    Time Temperature Precipitation Wind Pressure Humidity
    00:00 +9°C° 0 mm 1 mps 713 mmHg 78%
    01:00 +9°C° 0 mm 1 mps 713 mmHg 77%
    02:00 +8°C° 0 mm 1 mps 713 mmHg 76%
    03:00 +8°C° 0 mm 1 mps 713 mmHg 75%
    04:00 +8°C° 0 mm 1 mps 713 mmHg 73%
    05:00 +8°C° 0 mm 1 mps 713 mmHg 72%
    06:00 +8°C° 0 mm 1 mps 713 mmHg 72%
    07:00 +10°C° 0 mm 1 mps 713 mmHg 63%
    08:00 +11°C° 0 mm 1 mps 714 mmHg 54%
    09:00 +13°C° 0 mm 1 mps 714 mmHg 45%
    10:00 +15°C° 0 mm 1 mps 715 mmHg 41%
    11:00 +16°C° 0 mm 1 mps 715 mmHg 36%
    12:00 +16°C° 0 mm 0 mps 715 mmHg 32%
    13:00 +18°C° 0 mm 1 mps 715 mmHg 32%
    14:00 +18°C° 0 mm 1 mps 714 mmHg 32%
    15:00 +18°C° 0 mm 1 mps 714 mmHg 33%
    16:00 +15°C° 0 mm 1 mps 714 mmHg 40%
    17:00 +13°C° 0 mm 1 mps 714 mmHg 48%
    18:00 +11°C° 0 mm 0 mps 714 mmHg 55%
    19:00 +12°C° 0 mm 1 mps 714 mmHg 54%
    20:00 +11°C° 0 mm 1 mps 714 mmHg 53%
    21:00 +11°C° 0 mm 1 mps 714 mmHg 52%
    22:00 +11°C° 0 mm 1 mps 714 mmHg 49%
    23:00 +11°C° 0 mm 1 mps 714 mmHg 46%

    Tomorrow, 21 November, Tuesday

    Time Temperature Precipitation Wind Pressure Humidity
    00:00 +10°C° 0 mm 1 mps 714 mmHg 43%
    01:00 +10°C° 0 mm 1 mps 713 mmHg 42%
    02:00 +10°C° 0 mm 1 mps 713 mmHg 41%
    03:00 +10°C° 0 mm 1 mps 713 mmHg 39%
    04:00 +9°C° 0 mm 1 mps 713 mmHg 39%
    05:00 +9°C° 0 mm 1 mps 713 mmHg 39%
    06:00 +9°C° 0 mm 1 mps 713 mmHg 39%
    07:00 +11°C° 0 mm 1 mps 714 mmHg 36%
    08:00 +13°C° 0 mm 1 mps 714 mmHg 33%
    09:00 +15°C° 0 mm 1 mps 715 mmHg 30%
    10:00 +16°C° 0 mm 1 mps 714 mmHg 28%
    11:00 +18°C° 0 mm 1 mps 714 mmHg 25%
    12:00 +20°C° 0 mm 1 mps 714 mmHg 23%
    13:00 +20°C° 0 mm 1 mps 714 mmHg 25%
    14:00 +20°C° 0 mm 1 mps 714 mmHg 27%
    15:00 +20°C° 0 mm 1 mps 713 mmHg 29%
    16:00 +18°C° 0 mm 1 mps 713 mmHg 35%
    17:00 +15°C° 0 mm 1 mps 713 mmHg 41%
    18:00 +13°C° 0 mm 1 mps 713 mmHg 46%
    19:00 +12°C° 0 mm 1 mps 713 mmHg 46%
    20:00 +12°C° 0 mm 1 mps 713 mmHg 45%
    21:00 +12°C° 0 mm 1 mps 713 mmHg 45%
    22:00 +11°C° 0 mm 1 mps 713 mmHg 43%
    23:00 +11°C° 0 mm 1 mps 712 mmHg 42%

    Day after tomorrow, 22 November, Wednesday

    Time Temperature Precipitation Wind Pressure Humidity
    00:00 +11°C° 0 mm 1 mps 712 mmHg 41%
    01:00 +11°C° 0 mm 1 mps 712 mmHg 40%
    02:00 +10°C° 0 mm 1 mps 712 mmHg 39%
    03:00 +10°C° 0 mm 1 mps 711 mmHg 38%
    04:00 +10°C° 0 mm 1 mps 711 mmHg 38%
    05:00 +10°C° 0 mm 1 mps 711 mmHg 38%
    06:00 +9°C° 0 mm 2 mps 711 mmHg 38%
    07:00 +12°C° 0 mm 2 mps 712 mmHg 36%
    08:00 +14°C° 0 mm 2 mps 712 mmHg 33%
    09:00 +16°C° 0 mm 2 mps 713 mmHg 31%
    10:00 +18°C° 0 mm 1 mps 712 mmHg 28%
    11:00 +19°C° 0 mm 1 mps 712 mmHg 25%
    12:00 +20°C° 0 mm 1 mps 712 mmHg 23%
    13:00 +20°C° 0 mm 1 mps 712 mmHg 24%
    14:00 +20°C° 0 mm 1 mps 712 mmHg 26%
    15:00 +20°C° 0 mm 1 mps 711 mmHg 28%
    16:00 +18°C° 0 mm 1 mps 711 mmHg 31%
    17:00 +15°C° 0 mm 1 mps 711 mmHg 35%
    18:00 +13°C° 0 mm 1 mps 711 mmHg 39%
    19:00 +13°C° 0 mm 1 mps 711 mmHg 38%
    20:00 +13°C° 0 mm 1 mps 712 mmHg 37%
    21:00 +12°C° 0 mm 1 mps 712 mmHg 36%
    22:00 +12°C° 0 mm 1 mps 712 mmHg 35%
    23:00 +12°C° 0 mm 1 mps 712 mmHg 34%

    23 November, Thursday

    Time Temperature Precipitation Wind Pressure Humidity
    00:00 +11°C° 0 mm 1 mps 712 mmHg 34%
    01:00 +11°C° 0 mm 1 mps 711 mmHg 34%
    02:00 +11°C° 0 mm 1 mps 711 mmHg 34%
    03:00 +10°C° 0 mm 1 mps 711 mmHg 33%
    04:00 +10°C° 0 mm 1 mps 711 mmHg 33%
    05:00 +10°C° 0 mm 1 mps 711 mmHg 33%
    06:00 +10°C° 0 mm 1 mps 712 mmHg 33%
    07:00 +12°C° 0 mm 1 mps 712 mmHg 31%
    08:00 +14°C° 0 mm 1 mps 713 mmHg 28%
    09:00 +16°C° 0 mm 1 mps 714 mmHg 26%
    10:00 +18°C° 0 mm 1 mps 714 mmHg 25%
    11:00 +19°C° 0 mm 1 mps 714 mmHg 24%
    12:00 +20°C° 0 mm 1 mps 714 mmHg 23%
    13:00 +19°C° 0 mm 1 mps 714 mmHg 26%
    14:00 +19°C° 0 mm 1 mps 714 mmHg 28%
    15:00 +18°C° 0 mm 2 mps 714 mmHg 31%
    16:00 +16°C° 0 mm 2 mps 714 mmHg 38%
    17:00 +14°C° 0 mm 1 mps 714 mmHg 45%
    18:00 +13°C° 0 mm 1 mps 713 mmHg 52%
    19:00 +12°C° 0 mm 1 mps 714 mmHg 53%
    20:00 +12°C° 0 mm 1 mps 714 mmHg 55%
    21:00 +11°C° 0 mm 1 mps 714 mmHg 56%
    22:00 +11°C° 0 mm 1 mps 714 mmHg 56%
    23:00 +11°C° 0 mm 1 mps 714 mmHg 55%

    24 November, Friday

    Time Temperature Precipitation Wind Pressure Humidity
    00:00 +10°C° 0 mm 1 mps 714 mmHg 55%
    01:00 +10°C° 0 mm 1 mps 714 mmHg 54%
    02:00 +10°C° 0 mm 1 mps 713 mmHg 54%
    03:00 +10°C° 0 mm 1 mps 713 mmHg 53%
    04:00 +10°C° 0 mm 1 mps 713 mmHg 53%
    05:00 +9°C° 0 mm 1 mps 713 mmHg 52%
    06:00 +9°C° 0 mm 1 mps 713 mmHg 52%
    07:00 +11°C° 0 mm 1 mps 714 mmHg 47%
    08:00 +13°C° 0 mm 1 mps 715 mmHg 42%
    09:00 +15°C° 0 mm 1 mps 715 mmHg 37%
    10:00 +18°C° 0 mm 1 mps 715 mmHg 34%
    11:00 +19°C° 0 mm 1 mps 715 mmHg 31%
    12:00 +20°C° 0 mm 1 mps 715 mmHg 28%
    13:00 +20°C° 0 mm 1 mps 715 mmHg 28%
    14:00 +20°C° 0 mm 1 mps 714 mmHg 29%
    15:00 +20°C° 0 mm 1 mps 714 mmHg 30%
    16:00 +18°C° 0 mm 1 mps 714 mmHg 34%
    17:00 +15°C° 0 mm 1 mps 714 mmHg 37%
    18:00 +13°C° 0 mm 1 mps 714 mmHg 40%
    19:00 +13°C° 0 mm 1 mps 714 mmHg 40%
    20:00 +13°C° 0 mm 1 mps 714 mmHg 39%
    21:00 +12°C° 0 mm 2 mps 714 mmHg 39%
    22:00 +12°C° 0 mm 2 mps 714 mmHg 39%
    23:00 +12°C° 0 mm 2 mps 714 mmHg 39%

    25 November, Saturday

    Time Temperature Precipitation Wind Pressure Humidity
    00:00 +10°C° 0 mm 2 mps 714 mmHg 38%
    01:00 +10°C° 0 mm 2 mps 714 mmHg 39%
    02:00 +10°C° 0 mm 2 mps 713 mmHg 40%
    03:00 +10°C° 0 mm 2 mps 713 mmHg 41%
    04:00 +9°C° 0 mm 2 mps 713 mmHg 42%
    05:00 +9°C° 0 mm 2 mps 713 mmHg 43%
    06:00 +9°C° 0 mm 2 mps 713 mmHg 44%
    07:00 +12°C° 0 mm 2 mps 714 mmHg 42%
    08:00 +13°C° 0 mm 2 mps 714 mmHg 39%
    09:00 +15°C° 0 mm 2 mps 715 mmHg 37%
    10:00 +17°C° 0 mm 2 mps 715 mmHg 34%
    11:00 +18°C° 0 mm 2 mps 715 mmHg 31%
    12:00 +19°C° 0 mm 2 mps 714 mmHg 28%
    13:00 +19°C° 0 mm 2 mps 714 mmHg 29%
    14:00 +19°C° 0 mm 2 mps 714 mmHg 30%
    15:00 +21°C° 0 mm 1 mps 714 mmHg 31%
    16:00 +19°C° 0 mm 1 mps 714 mmHg 34%
    17:00 +16°C° 0 mm 1 mps 713 mmHg 37%
    18:00 +14°C° 0 mm 1 mps 713 mmHg 40%
    19:00 +13°C° 0 mm 1 mps 714 mmHg 42%
    20:00 +13°C° 0 mm 2 mps 714 mmHg 44%
    21:00 +13°C° 0 mm 2 mps 714 mmHg 45%
    22:00 +12°C° 0 mm 2 mps 714 mmHg 48%
    23:00 +12°C° 0 mm 2 mps 714 mmHg 50%
    Show more